STARLINK-32428, 61666

Orbit data source: Space-Track

STARLINK-32428, 61666 is a payload satellite owned by SpaceX/Seattle (US) in LEO that was launched on Sat, 26 Oct 2024 UTC via an FALCON 9 launch vehicle from the Air Force Eastern Test Range (AFETR). Payload-class satellites include a variety of spacecraft equipped with specific instruments for various scientific and technological missions. These include communications satellites like Starlink; space stations such as the ISS; scientific satellites like the Hubble; Earth observation satellites from companies like Planet Labs, Umbra, and HawkEye 360; GPS; miniature CubeSats for education and research; and military/defense satellites.

Loading next visibility...
Identifier
61666, 2024-193F
Orbit
LEO
Last TLE update
1 day ago
Origin
Manufacturer
SpaceX/Seattle
Mission
Operational Commercial Communications
Bus & Motor
STARLINK V2M, Unknown motor
Mass
730 kg wet, ~700 kg dry
Launch date (UTC)
2024-10-26 (8 months ago)
Launch vehicle
FALCON 9
Launch site
Air Force Eastern Test Range (AFETR)
Object type
Payload
Rocket body
Debris
Shape & HBR
Box + 2 Pan, 29 m
Radar Cross Section
36.964 m², Large (>1 m²)

Expand to show TLE details & history

TLE from 1 day ago
0 STARLINK-32428
1 61666U 24193F   25181.27973443  .00000380  00000-0  24971-4 0  9998
2 61666  53.1599 183.2752 0001069  75.3059 284.8060 15.30194597 37880
Epoch: 2025-06-30T06:42Z
TLE epoch observation values (Epoch: 2025-06-30T06:42:49.054Z)
Latitude
-0.00005°
Longitude
163.97896°
Altitude
475.944 km
Speed
7.629 km/s
True Right ascension
12h 13m 06s
True Declination
0° 00' 00"
Sunlit
Object was in daylight at epoch
Visualization orbit readout
Latitude
-53.26603°
Longitude
72.2024°
Altitude
494.466 km
Speed
7.617 km/s
Apparent Right ascension
07h 28m 13s
Apparent Declination
-48° 13' 21"
Sunlit
Object is in daylight
Visualization observer readout
Local Sidereal Time
20:36:54
Azimuth
129.738° SE
Elevation
-75.18°
Doppler factor
1
Orbital elements
Apogee altitude
476.22 km
Perigee altitude
474.755 km
Semi-major axis
6,853.625 km
Eccentricity
0.00011
Inclination
53.1599°
RAAN
183.2752°
Arg. of periapsis
75.3059°
True anomaly
Unknown
Mean anomaly
284.806°
Eccentric anomaly
Unknown
Mean motion
3.82528 °/min
Orbital period
94.11 mins
BSTAR
0.000024971
Loading maneuver chart data...
Loading SW <> Apogee altitude chart data...
Loading historical data...
Loading historical data...
Loading historical data...
Loading historical data...
Loading historical data...
Loading historical data...
Loading historical data...

STARLINK-32428 Visibility forecast

Observer location: undefined°, undefined°

Span
Click to sort rows by Start time (UTC) header in descending order
Start Az.
Max El. time (UTC)
Max El. Az.
Max El.
End time (UTC)
End Az.
6 mins2025-07-01 09:52:41.804Z301.43° NW2025-07-01 09:55:41.804Z197.011° SSW40.848°2025-07-01 09:58:41.804Z143.198° SSE
5 mins2025-07-02 02:48:41.804Z246.842° WSW2025-07-02 02:50:41.804Z303.634° NW40.953°2025-07-02 02:53:41.804Z41.544° NE
4 mins2025-07-02 07:45:41.804Z344.083° N2025-07-02 07:47:41.804Z24.039° NE19.067°2025-07-02 07:49:41.804Z63.993° ENE
|